Waarnemingen

Advertentie
Mijn weer
Semmerzake, België (6428): temperatuur & dauwpunt: 19.06.2019 20:00:00 - 25.06.2019 20:00:00 (CEST)Semmerzake, België (6428): windsnelheid & windstoten: 19.06.2019 20:00:00 - 25.06.2019 20:00:00 (CEST)Semmerzake, België (6428): windrichting: 19.06.2019 20:00:00 - 25.06.2019 20:00:00 (CEST)Semmerzake, België (6428): luchtdruk: 19.06.2019 20:00:00 - 25.06.2019 20:00:00 (CEST)Semmerzake, België (6428): zicht: 19.06.2019 20:00:00 - 25.06.2019 20:00:00 (CEST)
Datum & Tijd tt [°C] td [°C] ff [km/u] ff [kn] fx [km/u] fx [kn] dd ppp [hPa] vv [km]
25.06.2019 20:00:00 25,1 19,5 11 6 - - NW 1019,2 11
25.06.2019 19:00:00 28,5 21,5 14 8 25 14 WNW 1018,1 12
25.06.2019 18:00:00 29,9 21,8 14 8 29 16 ZW 1017,2 20
25.06.2019 17:00:00 30,5 19,7 14 8 - - ZW 1016,8 20
25.06.2019 16:00:00 30,7 21,4 14 8 25 14 ZZW 1016,5 19
25.06.2019 15:00:00 30,2 21,2 14 8 22 12 Z 1016,0 20
25.06.2019 14:00:00 29,8 21,1 14 8 - - Z 1016,0 20
25.06.2019 13:00:00 29,4 21,2 7 4 18 10 ZZW 1015,7 16
25.06.2019 12:00:00 27,9 20,3 11 6 18 10 Z 1015,3 20
25.06.2019 11:00:00 26,1 19,5 11 6 - - Z 1015,2 20
25.06.2019 10:00:00 26,0 19,9 7 4 14 8 ZZO 1015,1 20
25.06.2019 09:00:00 24,3 19,7 4 2 7 4 N 1015,1 8
25.06.2019 08:00:00 21,3 18,7 4 2 - - N 1015,2 2,8
25.06.2019 07:00:00 18,2 17,5 4 2 4 2 N 1015,1 2,0
25.06.2019 06:00:00 18,0 17,5 4 2 4 2 N 1015,5 1,9
25.06.2019 05:00:00 18,1 17,3 4 2 - - N 1015,3 2,2
25.06.2019 04:00:00 18,0 17,0 4 2 11 6 N 1015,8 2,4
25.06.2019 03:00:00 18,2 17,2 7 4 14 8 N 1016,3 3,3
25.06.2019 02:00:00 19,2 17,5 7 4 - - N 1016,7 5
25.06.2019 01:00:00 20,2 18,2 7 4 14 8 N 1017,2 9
25.06.2019 00:00:00 20,7 18,7 7 4 11 6 N 1017,2 11
24.06.2019 23:00:00 21,3 18,7 4 2 - - N 1017,5 16
24.06.2019 22:00:00 22,6 18,9 4 2 7 4 N 1017,5 19
24.06.2019 21:00:00 23,8 19,5 4 2 14 8 N 1017,2 20
24.06.2019 20:00:00 24,7 19,4 11 6 - - N 1017,1 19
24.06.2019 19:00:00 25,7 20,4 11 6 22 12 N 1017,0 20
24.06.2019 18:00:00 27,3 20,6 14 8 22 12 NNW 1017,3 20
24.06.2019 17:00:00 29,7 18,4 4 2 - - N 1017,3 20
24.06.2019 16:00:00 29,5 17,2 7 4 14 8 ZW 1017,3 20
24.06.2019 15:00:00 29,1 19,2 4 2 18 10 N 1017,2 20
24.06.2019 14:00:00 28,2 19,6 7 4 - - ZZW 1017,2 20
24.06.2019 13:00:00 28,6 20,2 7 4 18 10 ZO 1016,8 20
24.06.2019 12:00:00 26,9 19,2 11 6 18 10 Z 1016,7 20
24.06.2019 11:00:00 26,2 19,5 7 4 - - ZZO 1016,8 6
24.06.2019 10:00:00 24,6 18,9 7 4 18 10 ZZO 1016,8 19
24.06.2019 09:00:00 23,1 17,4 11 6 22 12 ZZO 1016,6 20
24.06.2019 08:00:00 21,7 17,1 7 4 - - ZZO 1016,7 20
24.06.2019 07:00:00 20,3 16,4 7 4 14 8 ZO 1016,3 20
24.06.2019 06:00:00 19,9 16,2 7 4 14 8 ZO 1016,3 20
24.06.2019 05:00:00 20,6 16,2 11 6 - - ZO 1016,3 20
24.06.2019 04:00:00 20,9 16,2 11 6 14 8 OZO 1016,3 20
24.06.2019 03:00:00 21,7 16,2 4 2 14 8 N 1016,7 20
24.06.2019 02:00:00 21,9 16,6 7 4 - - N 1016,7 20
24.06.2019 01:00:00 22,5 16,6 4 2 11 6 N 1017,0 20
24.06.2019 00:00:00 22,7 16,8 7 4 11 6 N 1016,6 20
23.06.2019 23:00:00 22,8 16,9 4 2 - - N 1016,3 20
23.06.2019 22:00:00 24,4 17,1 7 4 11 6 OZO 1015,8 15
23.06.2019 21:00:00 25,3 17,7 4 2 11 6 N 1015,7 20
23.06.2019 20:00:00 26,3 17,8 7 4 - - ZO 1015,5 20
23.06.2019 19:00:00 26,8 17,0 7 4 18 10 O 1015,1 20
23.06.2019 18:00:00 27,1 17,8 11 6 22 12 OZO 1015,6 20
23.06.2019 17:00:00 27,3 17,2 7 4 - - OZO 1016,0 20
23.06.2019 16:00:00 27,4 15,5 11 6 29 16 OZO 1016,1 19
23.06.2019 15:00:00 27,3 16,2 11 6 25 14 OZO 1016,5 20
23.06.2019 14:00:00 26,6 17,2 7 4 - - O 1017,1 20
23.06.2019 13:00:00 25,2 15,8 11 6 29 16 ONO 1017,3 19
23.06.2019 12:00:00 24,1 17,3 7 4 18 10 O 1017,7 20
23.06.2019 11:00:00 22,6 15,4 7 4 - - O 1018,1 18
23.06.2019 10:00:00 21,2 15,5 7 4 14 8 O 1018,2 3,9
23.06.2019 09:00:00 19,0 14,7 7 4 14 8 ONO 1018,1 15
23.06.2019 08:00:00 16,4 13,7 7 4 - - ONO 1018,7 13
23.06.2019 07:00:00 15,1 13,1 4 2 11 6 N 1018,8 11
23.06.2019 06:00:00 13,9 12,4 7 4 11 6 NO 1018,6 8
23.06.2019 05:00:00 13,8 12,3 7 4 - - N 1018,8 7
23.06.2019 04:00:00 14,1 12,5 4 2 14 8 N 1019,0 10
23.06.2019 03:00:00 14,6 12,9 7 4 11 6 NO 1019,2 12
23.06.2019 02:00:00 14,8 13,0 7 4 - - NO 1019,3 13
23.06.2019 01:00:00 15,5 13,3 7 4 11 6 NO 1019,5 15
23.06.2019 00:00:00 15,3 13,2 4 2 14 8 N 1019,8 15
22.06.2019 23:00:00 16,3 13,0 7 4 - - N 1020,0 20
22.06.2019 22:00:00 17,3 12,7 7 4 22 12 N 1019,5 20
22.06.2019 21:00:00 19,2 13,1 11 6 18 10 N 1019,2 20
22.06.2019 20:00:00 20,7 12,5 11 6 - - NNO 1019,1 20
22.06.2019 19:00:00 21,5 13,1 11 6 22 12 NNO 1019,2 20
22.06.2019 18:00:00 21,8 12,1 11 6 22 12 NNO 1019,6 20
22.06.2019 17:00:00 21,8 10,9 11 6 - - N 1020,0 20
22.06.2019 16:00:00 21,5 11,8 7 4 22 12 NNO 1020,6 19
22.06.2019 15:00:00 20,6 10,5 11 6 25 14 N 1020,8 20
22.06.2019 14:00:00 21,6 11,7 7 4 - - O 1021,2 20
22.06.2019 13:00:00 19,8 10,7 11 6 22 12 NO 1021,6 16
22.06.2019 12:00:00 19,1 10,4 11 6 22 12 ONO 1021,8 0,9
22.06.2019 11:00:00 17,8 11,2 7 4 - - NO 1022,2 19
22.06.2019 10:00:00 16,6 11,5 11 6 14 8 NNO 1022,6 19
22.06.2019 09:00:00 14,5 10,9 7 4 14 8 NNO 1022,7 20
22.06.2019 08:00:00 12,8 10,5 7 4 - - NO 1022,8 14
22.06.2019 07:00:00 11,1 10,0 4 2 7 4 N 1022,8 9
22.06.2019 06:00:00 9,5 8,9 4 2 4 2 N 1023,0 7
22.06.2019 05:00:00 9,6 8,9 4 2 - - N 1023,0 6
22.06.2019 04:00:00 9,6 8,7 4 2 7 4 N 1023,0 12
22.06.2019 03:00:00 9,8 8,5 4 2 4 2 N 1023,2 12
22.06.2019 02:00:00 10,9 8,5 4 2 - - N 1023,3 16
22.06.2019 01:00:00 11,5 8,6 7 4 7 4 N 1023,3 19
22.06.2019 00:00:00 12,1 8,3 4 2 7 4 N 1023,3 20
21.06.2019 23:00:00 13,3 8,2 4 2 - - N 1022,8 20
21.06.2019 22:00:00 14,7 8,2 7 4 14 8 N 1022,2 20
21.06.2019 21:00:00 16,3 8,5 7 4 18 10 N 1021,8 20
21.06.2019 20:00:00 17,7 7,8 11 6 - - NNW 1021,5 20
21.06.2019 19:00:00 18,0 8,5 14 8 22 12 NNW 1021,2 20
21.06.2019 18:00:00 20,0 8,7 7 4 18 10 W 1020,8 20
21.06.2019 17:00:00 18,7 8,5 7 4 - - NW 1020,8 19
21.06.2019 16:00:00 19,2 8,2 7 4 22 12 WNW 1020,7 20
21.06.2019 15:00:00 18,4 8,6 4 2 22 12 N 1020,8 20
21.06.2019 14:00:00 18,1 8,7 11 6 - - W 1020,7 20
21.06.2019 13:00:00 18,5 8,2 11 6 22 12 W 1020,3 20
21.06.2019 12:00:00 17,2 8,6 11 6 22 12 W 1020,2 20
21.06.2019 11:00:00 17,6 9,1 11 6 - - W 1020,0 18
21.06.2019 10:00:00 15,6 11,1 11 6 18 10 W 1019,8 20
21.06.2019 09:00:00 14,3 11,1 11 6 22 12 ZW 1019,5 19
21.06.2019 08:00:00 12,6 10,7 11 6 - - ZW 1019,2 17
21.06.2019 07:00:00 11,3 9,9 11 6 18 10 ZZW 1018,7 19
21.06.2019 06:00:00 10,3 9,4 7 4 14 8 ZZW 1018,3 16
21.06.2019 05:00:00 10,1 9,1 7 4 - - ZZW 1018,2 18
21.06.2019 04:00:00 10,3 9,0 7 4 18 10 ZZW 1018,1 19
21.06.2019 03:00:00 10,9 9,0 11 6 14 8 ZZW 1017,8 20
21.06.2019 02:00:00 11,3 8,8 7 4 - - ZZW 1017,7 20
21.06.2019 01:00:00 11,6 8,6 11 6 14 8 ZZW 1017,6 20
21.06.2019 00:00:00 13,1 8,8 4 2 11 6 N 1017,2 20
20.06.2019 23:00:00 13,7 9,1 7 4 - - WZW 1016,8 20
20.06.2019 22:00:00 15,0 8,8 7 4 22 12 WZW 1016,3 20
20.06.2019 21:00:00 17,2 9,6 11 6 25 14 WZW 1015,8 20
20.06.2019 20:00:00 18,2 8,2 14 8 - - W 1015,3 20
20.06.2019 19:00:00 18,7 7,0 18 10 32 18 W 1015,0 20
20.06.2019 18:00:00 19,7 9,2 14 8 32 18 WZW 1014,6 20
20.06.2019 17:00:00 20,3 10,2 18 10 - - W 1014,2 20
20.06.2019 16:00:00 19,2 11,2 11 6 32 18 W 1014,1 20
20.06.2019 15:00:00 19,0 11,5 14 8 32 18 W 1013,7 20
20.06.2019 14:00:00 - - - - - - - - -
20.06.2019 13:00:00 - - - - - - - - -
20.06.2019 12:00:00 17,8 13,7 14 8 25 14 ZW 1012,7 20
20.06.2019 11:00:00 17,4 13,4 14 8 - - WZW 1012,5 20
20.06.2019 10:00:00 16,6 13,4 14 8 29 16 ZZW 1012,2 19
20.06.2019 09:00:00 15,8 13,0 14 8 25 14 ZW 1011,7 18
20.06.2019 08:00:00 14,6 12,5 11 6 - - ZW 1011,7 17
20.06.2019 07:00:00 - - - - - - - - -
20.06.2019 06:00:00 - - - - - - - - -
20.06.2019 05:00:00 - - - - - - - - -
20.06.2019 04:00:00 - - - - - - - - -
20.06.2019 03:00:00 14,8 14,1 11 6 14 8 ZW 1010,7 3,2
20.06.2019 02:00:00 15,6 15,0 7 4 - - ZW 1010,6 3,1
20.06.2019 01:00:00 15,6 15,3 7 4 11 6 ZZW 1010,2 2,2
20.06.2019 00:00:00 15,8 15,3 4 2 11 6 N 1009,7 3,7
19.06.2019 23:00:00 16,1 15,5 4 2 - - N 1009,6 11
19.06.2019 22:00:00 16,8 16,6 4 2 18 10 N 1009,1 3,1
19.06.2019 21:00:00 - - - - - - - - -
19.06.2019 20:00:00 19,2 17,7 7 4 - - ZZW 1007,7 10

tt = temperatuur
td = dauwpunt
ff = windsnelheid
fx = windstoten
dd = windrichting
ppp = luchtdruk
vv = zicht

Weerstations in de omgeving